Location: Unspecified
(0.0000°N, 0.0000°E)
Time: 06:35:40
(UTC+00:00)

Tiros 1 despin weight - All Passes

Search period start: 03 October 2023 00:00
Search period end: 13 October 2023 00:00
Orbit: 584 x 629 km, 48.2° (Epoch: 02 October)

Date Brightness Start Highest point End Pass type
(mag) Time Alt. Az. Time Alt. Az. Time Alt. Az.
03 Oct - 03:09:11 10° NNW 03:13:29 67° NE 03:17:50 10° SE visible
03 Oct - 15:15:24 10° SW 15:20:00 75° NW 15:24:35 10° NE daylight
04 Oct - 01:43:26 10° NNE 01:45:10 12° NE 01:46:54 10° ENE night (unlit)
04 Oct - 03:22:09 10° WNW 03:26:18 44° SW 03:30:29 10° SSE visible
04 Oct - 13:48:13 10° S 13:51:41 21° SE 13:55:07 10° E daylight
04 Oct - 15:28:49 10° WSW 15:32:50 29° NW 15:36:49 10° N daylight
05 Oct - 01:54:14 10° N 01:58:02 30° NE 02:01:51 10° ESE night (unlit)
05 Oct - 03:36:10 10° W 03:39:08 18° SW 03:42:09 10° S visible
05 Oct - 14:00:02 10° SSW 14:04:30 50° SE 14:08:57 10° NE daylight
05 Oct - 15:43:45 10° WNW 15:45:41 12° NW 15:47:37 10° NNW daylight
06 Oct - 02:06:30 10° NW 02:10:50 80° NE 02:15:11 10° SE night (unlit)
06 Oct - 14:12:44 10° SW 14:17:18 63° NW 14:21:50 10° NNE daylight
07 Oct - 00:40:09 10° NNE 00:42:30 14° NE 00:44:50 10° E night (unlit)
07 Oct - 02:19:35 10° WNW 02:23:37 37° SW 02:27:40 10° SSE night (unlit)
07 Oct - 12:45:13 10° S 12:48:56 24° SE 12:52:39 10° ENE daylight
07 Oct - 14:26:16 10° WSW 14:30:05 25° NW 14:33:54 10° N daylight
08 Oct - 00:51:21 10° NNW 00:55:19 35° NE 00:59:17 10° ESE night (unlit)
08 Oct - 02:33:50 10° W 02:36:26 15° SW 02:39:02 10° SSW night (unlit)
08 Oct - 12:57:11 10° SSW 13:01:44 59° SE 13:06:16 10° NE daylight
08 Oct - 14:41:56 10° WNW 14:42:56 11° NW 14:43:56 10° NW daylight
09 Oct - 01:03:44 10° NW 01:08:04 87° SW 01:12:26 10° SE night (unlit)
09 Oct - 11:31:42 10° SSE 11:33:17 12° SE 11:34:52 10° ESE daylight
09 Oct - 13:09:59 10° SW 13:14:29 54° NW 13:18:59 10° NNE daylight
09 Oct - 23:36:56 10° N 23:39:43 17° NE 23:42:30 10° E night (unlit)
10 Oct - 01:16:56 10° WNW 01:20:50 32° SW 01:24:44 10° SSE night (unlit)
10 Oct - 11:42:11 10° S 11:46:07 27° SE 11:50:01 10° ENE daylight
10 Oct - 13:23:41 10° WSW 13:27:15 22° NW 13:30:50 10° N daylight
10 Oct - 23:48:24 10° NNW 23:52:30 41° NE 23:56:36 10° ESE night (unlit)
11 Oct - 01:31:32 10° WSW 01:33:38 13° SW 01:35:44 10° SSW night (unlit)
11 Oct - 11:54:17 10° SSW 11:58:51 69° SE 12:03:26 10° NE daylight
12 Oct - 00:00:53 10° NW 00:05:13 74° SW 00:09:34 10° SE night (unlit)
12 Oct - 10:28:10 10° SSE 10:30:25 13° SE 10:32:39 10° E daylight
12 Oct - 12:07:10 10° SW 12:11:35 46° NW 12:16:00 10° NNE daylight
12 Oct - 22:33:43 10° N 22:36:51 19° NE 22:39:58 10° E night (unlit)
